Location: Cheching
(60.0667°N, 164.2167°W)
Time: 13:22:00
(UTC+00:00)

First-Move - Visible Passes

Search period start: 16 January 2021 00:00
Search period end: 26 January 2021 00:00
Orbit: 577 x 666 km, 97.6° (Epoch: 16 January)

Date Brightness Start Highest point End Pass type
(mag) Time Alt. Az. Time Alt. Az. Time Alt. Az.
16 Jan ? 03:43:56 10° SSW 03:48:06 40° W 03:52:23 10° NNW visible
16 Jan ? 15:21:19 10° NNE 15:25:09 25° E 15:28:57 10° SE visible
16 Jan ? 16:57:09 10° NNE 17:01:45 70° WNW 17:06:20 10° SSW visible
16 Jan ? 18:34:05 10° N 18:37:16 19° NW 18:40:28 10° W visible
17 Jan ? 04:02:09 10° SSW 04:06:04 30° W 04:10:04 10° NNW visible
17 Jan ? 15:38:56 10° NNE 15:43:08 33° E 15:47:17 10° SSE visible
17 Jan ? 17:15:03 10° N 17:19:31 53° WNW 17:23:59 10° SW visible
18 Jan ? 04:20:32 10° SW 04:24:04 23° W 04:27:40 10° NW visible
18 Jan ? 15:56:39 10° NNE 16:01:05 44° E 16:05:28 10° S visible
18 Jan ? 17:32:57 10° N 17:37:16 40° WNW 17:41:33 10° SW visible
19 Jan ? 04:39:09 10° SW 04:42:07 17° W 04:45:08 10° NW visible
19 Jan ? 14:39:40 10° NE 14:41:50 13° E 14:43:57 10° ESE visible
19 Jan ? 16:14:25 10° NNE 16:18:59 60° ESE 16:23:30 10° S visible
19 Jan ? 17:50:53 10° N 17:54:57 32° WNW 17:59:00 10° WSW visible
20 Jan ? 04:58:09 10° WSW 05:00:13 13° W 05:02:18 10° NW visible
20 Jan ? 14:56:51 10° NE 14:59:55 17° E 15:02:57 10° SE visible
20 Jan ? 16:32:12 10° NNE 16:36:51 80° ESE 16:41:26 10° SSW visible
20 Jan ? 18:08:51 10° N 18:12:37 25° NW 18:16:20 10° WSW visible
21 Jan ? 03:36:38 10° S 03:40:57 45° W 03:45:21 10° NNW visible
21 Jan ? 15:14:18 10° NE 15:17:58 23° E 15:21:35 10° SE visible
21 Jan ? 16:50:02 10° NNE 16:54:40 77° WNW 16:59:13 10° SSW visible
21 Jan ? 18:26:53 10° N 18:30:14 20° NW 18:33:34 10° W visible
22 Jan ? 03:54:48 10° SSW 03:58:53 33° W 04:03:03 10° NNW visible
22 Jan ? 15:31:54 10° NNE 15:35:58 30° E 15:39:59 10° SSE visible
22 Jan ? 17:07:54 10° NNE 17:12:26 58° WNW 17:16:55 10° SW visible
23 Jan ? 04:13:07 10° SW 04:16:52 25° W 04:20:41 10° NNW visible
23 Jan ? 15:49:34 10° NNE 15:53:55 40° E 15:58:12 10° SSE visible
23 Jan ? 17:25:48 10° N 17:30:11 44° WNW 17:34:30 10° SW visible
24 Jan ? 04:31:38 10° SW 04:34:54 19° W 04:38:12 10° NW visible
24 Jan ? 14:33:00 10° ENE 14:34:35 12° ENE 14:36:10 10° E visible
24 Jan ? 16:07:18 10° NNE 16:11:50 54° E 16:16:17 10° S visible
24 Jan ? 17:43:44 10° N 17:47:53 34° WNW 17:51:59 10° WSW visible
25 Jan ? 04:50:27 10° WSW 04:52:58 15° W 04:55:31 10° NW visible
25 Jan ? 14:49:56 10° NE 14:52:41 16° E 14:55:25 10° ESE visible
25 Jan ? 16:25:05 10° NNE 16:29:43 72° ESE 16:34:14 10° S visible
25 Jan ? 18:01:41 10° N 18:05:33 27° NW 18:09:21 10° WSW visible
